Maastricht, Netherlands

7:08 AM CET on December 16, 2017 (GMT +0100)
Maastricht-Aachen

Weather History for EHBK - March, 2014

Change the Weather History Date:

Thursday, March 13, 2014

  Actual Average Record
Temperature  
Mean Temperature 51 °F -  
Max Temperature 65 °F 51 °F 65 °F (2014)
Min Temperature 37 °F 37 °F 12 °F (2013)
Degree Days  
Heating Degree Days 14    
Growing Degree Days 1 (Base 50)    
Moisture  
Dew Point 37 °F    
Average Humidity 60    
Maximum Humidity 87    
Minimum Humidity 25    
Precipitation  
Precipitation 0.00 in 0.08 in - ()
Sea Level Pressure  
Sea Level Pressure 30.37 in    
Wind  
Wind Speed 5 mph ()    
Max Wind Speed 9 mph    
Max Gust Speed -    
Visibility 4.8 miles    
Events      
Averages and records for this station are not official NWS values.
T = Trace of Precipitation, MM = Missing Value Source: Averaged Metar Reports

Daily Weather History Graph

Daily Weather History Graph

Search for Another Location

Airport or City:

Trip Planner

Search our weather history database for the weather conditions in past years. The results will help you decide how hot, cold, wet, or windy it might be!

Date:

Astronomy

Mar. 13, 2014 Rise Set
Actual Time 6:55 AM CET 6:38 PM CET
Civil Twilight 6:22 AM CET 7:10 PM CET
Nautical Twilight 5:44 AM CET 7:49 PM CET
Astronomical Twilight 5:05 AM CET 8:28 PM CET
Moon 3:34 PM CET (3/13) 5:09 AM CET (3/13)
Length of Visible Light 12h 47m
Length of Day
11h 42m
Waxing Gibbous, 90% of the Moon is Illuminated
Mar 13
Waxing Gibbous
Mar 16
Full
Mar 24
Last Quarter
Mar 30
New
Apr 7
First Quarter

Hourly Weather History & Observations

Time (CET) Temp. Windchill Dew Point Humidity Pressure Visibility Wind Dir Wind Speed Gust Speed Precip Events Conditions
12:00 AM 44 °F - 37 °F 68% 30.41 in 4 mi ENE 4.5 mph - -   Light Haze
12:25 AM 42.8 °F 41.1 °F 37.4 °F 81% 30.39 in 3.7 mi East 3.5 mph - N/A   Unknown
12:55 AM 44.6 °F 42.2 °F 37.4 °F 76% 30.36 in 3.7 mi ESE 4.6 mph - N/A   Unknown
1:00 AM 42 °F - 37 °F 75% 30.40 in 4 mi SE 4.5 mph - -   Light Haze
1:25 AM 42.8 °F 40.1 °F 37.4 °F 81% 30.36 in 3.7 mi SSE 4.6 mph - N/A   Unknown
1:55 AM 42.8 °F - 37.4 °F 81% 30.36 in 3.7 mi SSE 2.3 mph - N/A   Unknown
2:00 AM 43 °F - 37 °F 72% 30.40 in 4 mi SSE 2.2 mph - -   Light Haze
2:25 AM 41.0 °F 38.0 °F 35.6 °F 81% 30.36 in 3.1 mi SSW 4.6 mph - N/A   Haze
2:55 AM 42.8 °F 40.1 °F 37.4 °F 81% 30.36 in 3.1 mi SSW 4.6 mph - N/A   Mist
3:00 AM 42 °F - 36 °F 73% 30.39 in 4 mi SSW 4.5 mph - -   Mist
3:25 AM 42.8 °F 39.3 °F 35.6 °F 76% 30.36 in 3.7 mi SSW 5.8 mph - N/A   Unknown
3:55 AM 39.2 °F 34.2 °F 35.6 °F 87% 30.36 in 3.7 mi SSW 6.9 mph - N/A   Unknown
4:00 AM 39 °F - 35 °F 78% 30.38 in 4 mi SSW 6.7 mph - -   Mist
4:25 AM 39.2 °F 34.2 °F 35.6 °F 87% 30.36 in 3.7 mi SSW 6.9 mph - N/A   Unknown
4:55 AM 39.2 °F 33.0 °F 35.6 °F 87% 30.36 in 3.7 mi SSW 9.2 mph - N/A   Unknown
5:00 AM 39 °F - 34 °F 77% 30.38 in 4 mi SSW 8.9 mph - -   Mist
5:25 AM 39.2 °F 33.6 °F 33.8 °F 81% 30.36 in 3.7 mi SSW 8.1 mph - N/A   Unknown
5:55 AM 39.2 °F 35.0 °F 33.8 °F 81% 30.36 in 3.7 mi SSW 5.8 mph - N/A   Unknown
6:00 AM 38 °F - 33 °F 77% 30.39 in 4 mi SSW 6.7 mph - -   Mist
6:25 AM 39.2 °F 33.6 °F 33.8 °F 81% 30.36 in 4.3 mi SSW 8.1 mph - N/A   Unknown
6:55 AM 37.4 °F 32.1 °F 32.0 °F 81% 30.36 in 4.3 mi SSW 6.9 mph - N/A   Unknown
7:00 AM 38 °F - 33 °F 74% 30.40 in 4 mi SSW 8.9 mph - -   Mist
7:25 AM 37.4 °F 31.4 °F 33.8 °F 87% 30.36 in 4.3 mi SSW 8.1 mph - N/A   Unknown
7:55 AM 39.2 °F 34.2 °F 33.8 °F 81% 30.36 in 3.7 mi SSW 6.9 mph - N/A   Unknown
8:00 AM 40 °F - 35 °F 76% 30.41 in 4 mi SSW 6.7 mph - -   Mist
8:25 AM 42.8 °F 38.0 °F 35.6 °F 76% 30.39 in 4.3 mi SSW 8.1 mph - N/A   Unknown
8:55 AM 44.6 °F 40.7 °F 37.4 °F 76% 30.39 in 5.0 mi SSW 6.9 mph - N/A   Unknown
9:00 AM 46 °F - 37 °F 61% 30.41 in 5 mi SSW 6.7 mph - -   Light Haze
9:25 AM 48.2 °F - 37.4 °F 66% 30.39 in 5.6 mi SSW 5.8 mph - N/A   Unknown
9:55 AM 50.0 °F - 37.4 °F 62% 30.39 in 6.2 mi SSW 5.8 mph - N/A   Unknown
10:00 AM 51 °F - 38 °F 50% 30.41 in 6 mi SW 6.7 mph - -  
10:25 AM 53.6 °F - 39.2 °F 58% 30.39 in 6.2 mi SSW 5.8 mph - N/A   Unknown
10:55 AM 55.4 °F - 39.2 °F 54% 30.39 in 6.2 mi SSW 4.6 mph - N/A   Unknown
11:00 AM 56 °F - 39 °F 41% 30.41 in 6 mi SSW 4.5 mph - -  
11:25 AM 57.2 °F - 37.4 °F 48% 30.39 in 6.2 mi WSW 4.6 mph - N/A   Unknown
11:55 AM 59.0 °F - 39.2 °F 48% 30.39 in 6.2 mi West 2.3 mph - N/A   Unknown
12:00 PM 61 °F - 40 °F 34% 30.40 in 6 mi 2.2 mph - -   Light Haze
12:25 PM 60.8 °F - 37.4 °F 42% 30.36 in 6.2 mi NNW 3.5 mph - N/A   Unknown
12:55 PM 62.6 °F - 37.4 °F 39% 30.36 in 6.2 mi North 3.5 mph - N/A   Unknown
1:00 PM 64 °F - 37 °F 25% 30.40 in 6 mi NNE 2.2 mph - -   Light Haze
1:25 PM 64.4 °F - 37.4 °F 37% 30.36 in 5.6 mi Variable 2.3 mph - N/A   Unknown
1:55 PM 64.4 °F - 37.4 °F 37% 30.36 in 5.6 mi Variable 2.3 mph - N/A   Unknown
2:00 PM 65 °F - 40 °F 28% 30.38 in 6 mi NNW 2.2 mph - -  
2:25 PM 64.4 °F - 39.2 °F 40% 30.33 in 5.6 mi NNW 1.2 mph - N/A   Unknown
2:55 PM 64.4 °F - 39.2 °F 40% 30.33 in 5.6 mi Variable 3.5 mph - N/A   Unknown
3:00 PM 65 °F - 38 °F 26% 30.36 in 5 mi North 4.5 mph - -   Light Haze
3:25 PM 64.4 °F - 39.2 °F 40% 30.33 in 5.6 mi NNE 3.5 mph - N/A   Unknown
3:55 PM 64.4 °F - 41.0 °F 42% 30.33 in 5.0 mi NNE 4.6 mph - N/A   Unknown
4:00 PM 64 °F - 42 °F 33% 30.35 in 5 mi North 4.5 mph - -   Light Haze
4:25 PM 64.4 °F - 42.8 °F 45% 30.33 in 5.0 mi NNW 4.6 mph - N/A   Unknown
4:55 PM 62.6 °F - 39.2 °F 42% 30.33 in 5.0 mi NNE 4.6 mph - N/A   Unknown
5:00 PM 62 °F - 41 °F 34% 30.35 in 5 mi North 4.5 mph - -   Light Haze
5:25 PM 60.8 °F - 41.0 °F 48% 30.33 in 5.0 mi North 5.8 mph - N/A   Unknown
5:55 PM 60.8 °F - 39.2 °F 45% 30.33 in 5.0 mi NNE 5.8 mph - N/A   Unknown
6:00 PM 58 °F - 40 °F 39% 30.35 in 5 mi NNE 6.7 mph - -   Light Haze
6:25 PM 57.2 °F - 37.4 °F 48% 30.33 in 5.6 mi NNE 4.6 mph - N/A   Unknown
6:55 PM 55.4 °F - 37.4 °F 51% 30.33 in 5.0 mi ENE 3.5 mph - N/A   Unknown
7:00 PM 55 °F - 39 °F 43% 30.37 in 5 mi ENE 2.2 mph - -   Light Haze
7:25 PM 53.6 °F - 39.2 °F 58% 30.33 in 5.0 mi NE 5.8 mph - N/A   Unknown
7:55 PM 55.4 °F - 37.4 °F 51% 30.33 in 5.0 mi NNE 3.5 mph - N/A   Unknown
8:00 PM 53 °F - 38 °F 44% 30.38 in 5 mi North 4.5 mph - -   Light Haze
8:25 PM 53.6 °F - 37.4 °F 54% 30.33 in 5.0 mi NNE 4.6 mph - N/A   Unknown
8:55 PM 53.6 °F - 37.4 °F 54% 30.36 in 5.6 mi North 6.9 mph - N/A   Unknown
9:00 PM 54 °F - 38 °F 44% 30.38 in 6 mi North 6.7 mph - -   Light Haze
9:25 PM 50.0 °F - 37.4 °F 62% 30.36 in 5.0 mi NNE 4.6 mph - N/A   Unknown
9:55 PM 48.2 °F - 37.4 °F 66% 30.36 in 5.0 mi NNE 6.9 mph - N/A   Unknown
10:00 PM 48 °F - 38 °F 60% 30.39 in 5 mi NNE 6.7 mph - -   Light Haze
10:25 PM 48.2 °F - 37.4 °F 66% 30.36 in 4.3 mi NNE 8.1 mph - N/A   Unknown
10:55 PM 46.4 °F 44.3 °F 37.4 °F 71% 30.36 in 4.3 mi NNE 4.6 mph - N/A   Unknown
11:00 PM 47 °F - 38 °F 60% 30.39 in 4 mi NNE 4.5 mph - -   Light Haze
11:25 PM 48.2 °F - 41.0 °F 76% 30.36 in 3.7 mi NNE 9.2 mph - N/A   Unknown
11:55 PM 48.2 °F - 41.0 °F 76% 30.36 in 3.1 mi NNE 9.2 mph - N/A   Haze